Hancock, MI

8:11 AM EDT on August 25, 2016 (GMT -0400)
Houghton County Memorial

Weather History for KCMX - March, 2013

Change the Weather History Date:

Wednesday, March 6, 2013

  Actual Average Record
Temperature  
Mean Temperature 22 °F -  
Max Temperature 24 °F 28 °F 59 °F (1987)
Min Temperature 19 °F 13 °F -9 °F (2003)
Degree Days  
Heating Degree Days 44    
Moisture  
Dew Point 19 °F    
Average Humidity 88    
Maximum Humidity 100    
Minimum Humidity 71    
Precipitation  
Precipitation 0.02 in - - ()
Sea Level Pressure  
Sea Level Pressure 30.26 in    
Wind  
Wind Speed 8 mph (NNW)    
Max Wind Speed 15 mph    
Max Gust Speed -    
Visibility 5 miles    
Events Rain , Snow    
Averages and records for this station are not official NWS values.
T = Trace of Precipitation, MM = Missing Value Source: NWS Daily Summary

Daily Weather History Graph

Daily Weather History Graph

Search for Another Location

Airport or City:

Trip Planner

Search our weather history database for the weather conditions in past years. The results will help you decide how hot, cold, wet, or windy it might be!

Date:

Astronomy

Mar. 06, 2013 Rise Set
Actual Time 7:23 AM EST 6:47 PM EST
Civil Twilight 6:53 AM EST 7:17 PM EST
Nautical Twilight 6:18 AM EST 7:52 PM EST
Astronomical Twilight 5:42 AM EST 8:28 PM EST
Moon 3:49 AM EST (3/6) 1:12 PM EST (3/6)
Length of Visible Light 12h 24m
Length of Day
11h 23m
Waning Crescent, 30% of the Moon is Illuminated
Mar 6
Waning Crescent
Mar 11
New
Mar 19
First Quarter
Mar 27
Full
Apr 3
Last Quarter

Hourly Weather History & Observations

Time (EST) Temp. Windchill Dew Point Humidity Pressure Visibility Wind Dir Wind Speed Gust Speed Precip Events Conditions
12:10 AM 23.0 °F 13.9 °F 21.2 °F 93% 30.16 in 10.0 mi NNE 8.1 mph - N/A   Overcast
12:53 AM 23.0 °F 12.4 °F 21.0 °F 92% 30.23 in 10.0 mi NNE 10.4 mph - N/A   Overcast
1:07 AM 24.8 °F 14.6 °F 21.2 °F 86% 30.18 in 10.0 mi North 10.4 mph - N/A   Overcast
1:17 AM 24.8 °F 14.6 °F 21.2 °F 86% 30.18 in 10.0 mi North 10.4 mph - N/A   Overcast
1:53 AM 24.1 °F 14.4 °F 21.0 °F 88% 30.25 in 10.0 mi North 9.2 mph - N/A   Overcast
2:32 AM 24.8 °F 16.1 °F 21.2 °F 86% 30.19 in 2.5 mi North 8.1 mph - 0.00 in Rain Light Freezing Rain
2:45 AM 24.8 °F 16.1 °F 21.2 °F 86% 30.20 in 2.5 mi North 8.1 mph - 0.00 in Snow Light Snow
2:53 AM 24.1 °F 14.4 °F 21.9 °F 91% 30.25 in 2.5 mi North 9.2 mph - 0.00 in   Overcast
3:06 AM 24.8 °F 14.0 °F 21.2 °F 86% 30.20 in 3.0 mi North 11.5 mph - 0.00 in Rain Light Freezing Rain
3:53 AM 23.0 °F 12.4 °F 21.0 °F 92% 30.25 in 10.0 mi NNE 10.4 mph - 0.00 in Rain Light Freezing Rain
4:04 AM 23.0 °F 13.1 °F 21.2 °F 93% 30.19 in 10.0 mi NNE 9.2 mph - 0.00 in   Overcast
4:53 AM 23.0 °F 13.9 °F 21.0 °F 92% 30.26 in 10.0 mi North 8.1 mph - 0.00 in   Overcast
5:53 AM 23.0 °F 15.8 °F 21.0 °F 92% 30.28 in 3.0 mi North 5.8 mph - 0.00 in Snow Light Snow
6:11 AM 23.0 °F 15.8 °F 21.2 °F 93% 30.22 in 2.5 mi North 5.8 mph - 0.00 in Snow Light Snow
6:18 AM 23.0 °F 17.0 °F 21.2 °F 93% 30.22 in 3.0 mi North 4.6 mph - 0.00 in Snow Light Snow
6:53 AM 21.2 °F 16.4 °F 19.4 °F 93% 30.22 in 10.0 mi NW 3.5 mph - N/A   Overcast
7:17 AM 21.2 °F 16.4 °F 19.4 °F 93% 30.22 in 2.5 mi NNW 3.5 mph - 0.00 in Snow Light Snow
7:26 AM 21.2 °F 16.4 °F 19.4 °F 93% 30.23 in 3.0 mi NNW 3.5 mph - 0.00 in Snow Light Snow
7:40 AM 21.2 °F 16.4 °F 19.4 °F 93% 30.23 in 1.8 mi NNW 3.5 mph - 0.00 in Snow Light Snow
7:53 AM 21.9 °F 17.2 °F 19.9 °F 92% 30.29 in 1.8 mi NW 3.5 mph - 0.00 in Snow Light Snow
7:57 AM 21.2 °F 14.9 °F 19.4 °F 93% 30.23 in 3.0 mi NW 4.6 mph - 0.00 in Snow Light Snow
8:06 AM 21.2 °F 14.9 °F 19.4 °F 93% 30.23 in 2.5 mi NW 4.6 mph - 0.00 in Snow Light Snow
8:14 AM 21.2 °F 14.9 °F 21.2 °F 100% 30.23 in 1.8 mi NW 4.6 mph - 0.00 in Snow Light Snow
8:23 AM 21.2 °F 14.9 °F 21.2 °F 100% 30.23 in 2.0 mi NW 4.6 mph - 0.00 in Snow Light Snow
8:51 AM 23.0 °F 11.7 °F 19.4 °F 86% 30.24 in 3.0 mi NNW 11.5 mph - 0.00 in Snow Light Snow
8:53 AM 23.0 °F 11.1 °F 19.9 °F 88% 30.30 in 3.0 mi NNW 12.7 mph - 0.00 in Snow Light Snow
9:39 AM 21.2 °F 11.7 °F 19.4 °F 93% 30.25 in 3.0 mi NNW 8.1 mph - 0.01 in Snow Light Snow
9:48 AM 21.2 °F 11.7 °F 19.4 °F 93% 30.25 in 4.0 mi NNW 8.1 mph - 0.01 in Snow Light Snow
9:49 AM 21.9 °F 12.5 °F 19.0 °F 89% 30.31 in 4.0 mi NNW 8.1 mph - 0.01 in Snow Light Snow
9:51 AM 21.2 °F 10.9 °F 19.4 °F 93% 30.25 in 3.0 mi NW 9.2 mph - 0.00 in Snow Light Snow
9:54 AM 21.2 °F 9.5 °F 19.4 °F 93% 30.25 in 2.0 mi NW 11.5 mph - 0.00 in Snow Light Snow
9:56 AM 21.2 °F 10.1 °F 19.4 °F 93% 30.25 in 1.8 mi NW 10.4 mph - 0.00 in Snow Light Snow
10:11 AM 21.2 °F 9.5 °F 19.4 °F 93% 30.25 in 1.2 mi NW 11.5 mph - 0.00 in Snow Light Snow
10:53 AM 21.9 °F 10.4 °F 19.0 °F 89% 30.32 in 1.5 mi NW 11.5 mph - 0.00 in Snow Light Snow
11:05 AM 21.2 °F 9.5 °F 19.4 °F 93% 30.26 in 1.2 mi NW 11.5 mph - 0.00 in Snow Light Snow
11:42 AM 23.0 °F 11.1 °F 19.4 °F 86% 30.26 in 2.5 mi NW 12.7 mph - 0.00 in Snow Light Snow
11:53 AM 23.0 °F 11.7 °F 18.0 °F 81% 30.31 in 3.0 mi NW 11.5 mph - 0.00 in Snow Light Snow
12:28 PM 21.2 °F 8.9 °F 17.6 °F 86% 30.25 in 7.0 mi NW 12.7 mph - 0.00 in Snow Light Snow
12:53 PM 21.9 °F 10.4 °F 18.0 °F 85% 30.31 in 10.0 mi NW 11.5 mph - 0.00 in   Overcast
1:02 PM 21.2 °F 8.3 °F 17.6 °F 86% 30.25 in 9.0 mi NW 13.8 mph - 0.00 in   Overcast
1:53 PM 21.0 °F 8.6 °F 16.0 °F 81% 30.31 in 5.0 mi NW 12.7 mph - 0.00 in Snow Light Snow
2:43 PM 21.2 °F 8.9 °F 15.8 °F 80% 30.24 in 10.0 mi NW 12.7 mph - 0.00 in   Overcast
2:53 PM 21.0 °F 8.6 °F 16.0 °F 81% 30.30 in 10.0 mi NW 12.7 mph - 0.00 in   Overcast
3:53 PM 21.0 °F 7.6 °F 15.1 °F 78% 30.30 in 8.0 mi WNW 15.0 mph - N/A   Overcast
4:53 PM 19.9 °F 7.9 °F 14.0 °F 78% 30.31 in 8.0 mi WNW 11.5 mph - 0.00 in   Overcast
5:53 PM 21.0 °F 9.3 °F 12.9 °F 71% 30.31 in 10.0 mi WNW 11.5 mph - 0.00 in   Overcast
6:53 PM 19.9 °F 10.1 °F 14.0 °F 78% 30.32 in 9.0 mi NW 8.1 mph - 0.00 in   Overcast
7:53 PM 21.0 °F 13.4 °F 14.0 °F 74% 30.33 in 10.0 mi WNW 5.8 mph - 0.00 in   Overcast
8:26 PM 21.2 °F - 15.8 °F 80% 30.27 in 9.0 mi Calm Calm - 0.00 in   Overcast
8:53 PM 19.9 °F - 15.1 °F 81% 30.32 in 10.0 mi Calm Calm - 0.00 in   Overcast
9:53 PM 19.9 °F 14.9 °F 15.1 °F 81% 30.33 in 5.0 mi SW 3.5 mph - 0.00 in Snow Light Snow
10:12 PM 19.4 °F - 15.8 °F 86% 30.27 in 4.0 mi Calm Calm - 0.00 in Snow Light Snow
10:29 PM 19.4 °F - 15.8 °F 86% 30.27 in 1.5 mi Calm Calm - 0.00 in Snow Light Snow
10:33 PM 19.4 °F 12.8 °F 17.6 °F 93% 30.27 in 0.8 mi NW 4.6 mph - 0.01 in Snow Light Snow
10:43 PM 19.4 °F 12.8 °F 17.6 °F 93% 30.27 in 0.8 mi NW 4.6 mph - 0.01 in Snow Light Snow
10:50 PM 19.4 °F 12.8 °F 17.6 °F 93% 30.27 in 1.2 mi WNW 4.6 mph - 0.01 in Snow Light Snow
10:53 PM 19.0 °F 12.3 °F 18.0 °F 96% 30.34 in 1.5 mi NW 4.6 mph - 0.01 in Snow Light Snow
11:02 PM 19.4 °F 12.8 °F 17.6 °F 93% 30.27 in 3.0 mi NNW 4.6 mph - 0.00 in Snow Light Snow
11:12 PM 21.2 °F 12.6 °F 17.6 °F 86% 30.27 in 4.0 mi NNW 6.9 mph - 0.00 in Snow Light Snow
11:29 PM 19.4 °F 10.4 °F 17.6 °F 93% 30.27 in 5.0 mi North 6.9 mph - 0.00 in Snow Light Snow
11:53 PM 19.9 °F 10.1 °F 16.0 °F 85% 30.33 in 6.0 mi North 8.1 mph - 0.00 in Snow Light Snow